Погода METAR - Красноярск

Код аэропорта ICAO:
Кемерово, Абакан, Красноярск, Новосибирск
Код METAR: UNKL 212030Z 00000MPS 0900 0350S R29/2000U FG BKN001 07/07 Q1006 R29/150060 NOSIG RMK QBB050 QFE729
TAF UNKL 211957Z 2121/2221 VRB01MPS 0250 FG BKN001 BKN015CB 
     FM220300 10003MPS 3100 BR SCT012CB 
     TEMPO 2203/2206 0700 FG SCT002 BKN013CB 
     FM220600 24003G08MPS 6000 BKN020CB
       

Погода - Сейчас

Время: 2019-07-22 03:30, местное
Направление ветра: Штиль
Скорость ветра: 0 м/с
Видимость:
Температура: 0°C
Точка росы: 2000°C
Атмосферное давление:

Архив погоды

Время, местное Направление Скорость, м/с Температура, °C Точка росы, °C Давление, гПа
2019-07-22 03:30 Штиль 0 0 2000
2019-07-19 13:30 З (270°) 3 20 18 1006
2019-07-18 22:00 Штиль 0 19 16 1005
2019-07-18 13:30 Ю (170°) 4 27 14 1005
2019-07-18 07:00 Штиль 0 18 16 1006
2019-07-17 16:00 ЮЗ (210°) 4 21 16 1005
2019-07-17 03:30 Штиль 0 13 13 1006
2019-07-16 20:00 ВСВ (60°) 3 22 16 1007
2019-07-16 07:30 В (80°) 1 15 14 1006
2019-07-14 22:00 СЗ (300°) 2 19 12 1009
2019-07-14 00:30 ЗСЗ (290°) 1 13 11 1011
2019-07-13 14:30 В (100°) 5 25 11 1014
2019-07-13 10:00 ВСВ (60°) 1 19 12 1016
2019-07-12 20:30 ССВ (20°) 2 22 12 1017
2019-07-12 18:00 ВСВ (60°) 4 24 12 1017
2019-07-12 05:30 Штиль 0 11 11 1020
2019-07-11 08:30 СЗ (310°) 2 17 14 1016
2019-07-11 00:30 ЗЮЗ (250°) 3 16 15 1011
2019-07-10 07:00 Штиль 0 19 13 1002
2019-07-08 17:00 З (270°) 5 25 10 1009
2019-07-08 07:30 З (280°) 5 19 13 1008
2019-07-07 05:00 Штиль 0 12 12 1006
2019-07-05 07:00 З (280°) 1 20 16 1008
2019-07-05 01:30 Штиль 0 19 18 1008
2019-07-01 22:30 ЗСЗ (290°) 5 15 14 1010
2019-06-30 06:00 ЗСЗ (290°) 7 18 17 1007
2019-06-28 09:00 ВСВ (70°) 1 23 16 1009
2019-06-27 21:30 Штиль 0 21 17 1008
2019-06-26 18:00 СЗ (310°) 3 26 15 1010
2019-06-26 17:30 СЗ (300°) 4 26 16 1011
2019-06-26 07:30 ЗСЗ (290°) 5 15 12 1012
2019-06-25 00:30 З (280°) 1 12 11 1011
2019-06-24 12:30 З (270°) 4 14 12 1010
2019-06-23 04:00 З (280°) 1 11 10 1007
2019-06-19 17:30 З (270°) 5 23 9 1008
2019-06-19 13:00 З (270°) 5 24 12 1006
2019-06-18 13:30 ВЮВ (110°) 5 21 6 1011
2019-06-15 19:30 Штиль 0 20 15 1005
2019-06-14 22:30 СЗ (300°) 1 17 12 1004
2019-06-14 01:00 ЮЗ (230°) 3 21 11 1001
2019-06-11 15:30 З (280°) 6 18 12 1010
2019-06-11 09:00 ЗЮЗ (260°) 6 16 12 1008
2019-06-11 01:00 ЗЮЗ (240°) 3 16 10 1005
2019-06-10 07:00 З (270°) 4 17 13 1005
2019-06-08 03:30 Ю (170°) 1 13 13 1007
2019-06-06 19:30 ЮВ (120°) 5 24 4 1007
2019-06-05 06:30 ССЗ (340°) 1 13 6 1009
2019-06-04 00:30 Штиль 0 5 3 1010